Location: Newark
(51.5114°N, 0.0848°W)
Time: 09:57:50
(UTC+00:00)

N. Korean satellite - Pass Details

Date: 24 October 2019
Orbit: 456 x 506 km, 97.2° (Epoch: 14 November)

Event Time Altitude Azimuth Distance (km) Brightness Sun altitude
Rises 04:38:21 0° 33° (NNE) 2,572 10.8 -19.4°
Reaches altitude 10° 04:42:23 10° 78° (ENE) 1,697 10.6 -18.8°
Maximum altitude 04:42:54 10° 87° (E) 1,683 10.6 -18.7°
Drops below altitude 10° 04:43:25 10° 95° (E) 1,698 10.5 -18.6°
Sets 04:47:26 0° 140° (SE) 2,585 10.8 -18.0°
